DG5TKE Weather Reports


time (UTC)temp
C
wind
direction
speed
KPH
gust
KPH
rain 1hr
cm
rain 24hr
cm
rain mn
cm
humidity
%
barometer
mb
20260902101003 18 128 1.6 6.4 0.00 0.05 0.03 75 1018.4
20260902100220 18 111 1.6 6.4 0.00 0.05 0.03 76 1018.5
20260902095006 18 141 3.2 6.4 0.00 0.05 0.03 79 1018.7
20260902094218 17 147 3.2 8.0 0.00 0.05 0.03 80 1018.7
20260902093003 17 135 3.2 9.7 0.00 0.05 0.03 83 1018.6
20260902092003 16 130 3.2 6.4 0.00 0.05 0.03 87 1018.7
20260902091006 16 134 3.2 9.7 0.00 0.05 0.03 90 1018.7
20260902090004 15 170 3.2 9.7 0.00 0.05 0.03 91 1018.7
20260902085003 15 164 3.2 8.0 0.00 0.05 0.03 92 1018.8
20260902084007 15 164 3.2 8.0 0.00 0.05 0.03 94 1018.8
20260902083006 14 172 3.2 12.9 0.00 0.05 0.03 94 1018.9
20260902082008 13 181 3.2 9.7 0.00 0.05 0.03 94 1018.8
20260902081218 13 157 1.6 6.4 0.00 0.05 0.03 95 1018.8
20260902080003 13 178 1.6 3.2 0.00 0.05 0.03 95 1018.9
20260902075006 13 148 0.0 4.8 0.00 0.05 0.03 95 1018.9
20260902074006 13 0 0.0 0.0 0.00 0.05 0.03 95 1019.0
20260902073003 12 0 0.0 0.0 0.00 0.05 0.03 95 1018.9
20260902072006 12 161 1.6 3.2 0.00 0.05 0.03 95 1019.0
20260902071006 12 138 3.2 8.0 0.00 0.05 0.03 95 1018.8
20260902070005 12 166 3.2 6.4 0.00 0.05 0.03 95 1018.9
20260902065006 12 193 1.6 8.0 0.00 0.05 0.03 95 1018.9
20260902064217 12 167 1.6 8.0 0.00 0.05 0.03 95 1018.8
20260902063223 12 178 3.2 8.0 0.00 0.05 0.03 95 1018.8
20260902062006 11 156 3.2 11.3 0.00 0.05 0.03 94 1018.8
20260902061436 11 160 3.2 11.3 0.00 0.05 0.03 94 1018.8
20260902060003 11 153 1.6 6.4 0.00 0.05 0.03 94 1018.8
20260902055006 11 136 1.6 4.8 0.00 0.05 0.03 94 1018.9
20260902054217 11 133 1.6 4.8 0.00 0.05 0.03 94 1018.9
20260902053006 11 216 1.6 4.8 0.00 0.05 0.03 94 1019.1
20260902052006 11 164 1.6 6.4 0.00 0.05 0.03 94 1018.9
20260902051006 11 0 0.0 0.0 0.00 0.05 0.03 94 1018.8
20260902050218 11 202 1.6 4.8 0.00 0.05 0.03 94 1018.7
20260902045006 11 214 0.0 4.8 0.00 0.05 0.03 94 1018.7
20260902044218 11 0 0.0 0.0 0.00 0.05 0.03 93 1018.7
20260902043220 11 0 0.0 0.0 0.00 0.05 0.03 94 1018.6
20260902042006 11 0 0.0 0.0 0.00 0.05 0.03 93 1018.6
20260902041003 11 0 0.0 0.0 0.00 0.05 0.03 93 1018.7
20260902040003 11 0 0.0 0.0 0.00 0.05 0.03 93 1018.7
20260902035003 11 0 0.0 0.0 0.00 0.05 0.03 93 1018.7
20260902034003 11 0 0.0 0.0 0.00 0.05 0.03 93 1018.7
20260902033003 11 0 0.0 0.0 0.00 0.05 0.03 93 1018.7
20260902032007 11 0 0.0 0.0 0.00 0.05 0.03 93 1018.7
20260902031220 11 0 0.0 0.0 0.00 0.05 0.03 93 1018.6
20260902030007 11 0 0.0 0.0 0.00 0.05 0.03 93 1018.5
20260902025003 11 0 0.0 0.0 0.00 0.05 0.03 93 1018.6
20260902024003 11 0 0.0 0.0 0.00 0.05 0.03 92 1018.6
20260902023218 12 0 0.0 0.0 0.00 0.05 0.03 92 1018.5
20260902022006 12 0 0.0 0.0 0.00 0.05 0.03 92 1018.4
20260902021222 12 0 0.0 0.0 0.00 0.05 0.03 92 1018.5
20260902020006 12 0 0.0 0.0 0.00 0.05 0.03 92 1018.5
20260902015006 12 0 0.0 4.8 0.00 0.05 0.03 92 1018.4
20260902014003 12 0 0.0 0.0 0.00 0.05 0.03 92 1018.5
20260902013003 12 0 0.0 0.0 0.03 0.05 0.03 92 1018.5
20260902012006 12 0 0.0 0.0 0.03 0.05 0.03 92 1018.5
20260902011003 12 0 0.0 0.0 0.03 0.05 0.03 92 1018.6
20260902010217 12 0 0.0 0.0 0.03 0.05 0.03 92 1018.6
20260902005003 12 0 0.0 0.0 0.03 0.05 0.03 92 1018.7
20260902004006 12 0 0.0 0.0 0.03 0.05 0.03 91 1018.8
20260902003006 12 0 0.0 0.0 0.00 0.03 0.00 91 1018.7
20260902002006 12 0 0.0 3.2 0.00 0.03 0.00 91 1018.8
20260902001221 12 0 0.0 3.2 0.00 0.03 0.00 91 1018.8
20260902000003 13 292 1.6 3.2 0.00 0.03 0.00 91 1018.8
20260901235006 13 217 1.6 4.8 0.00 0.03 0.00 90 1018.7
20260901234006 13 311 1.6 6.4 0.00 0.03 0.00 90 1018.6
20260901233003 13 249 3.2 3.2 0.00 0.03 0.00 90 1018.6
20260901232003 13 240 1.6 6.4 0.00 0.03 0.00 90 1018.6
20260901231003 13 0 0.0 4.8 0.00 0.03 0.00 90 1018.6
20260901230004 13 0 0.0 0.0 0.00 0.03 0.00 89 1018.6
20260901225003 14 0 0.0 0.0 0.00 0.03 0.00 90 1018.6
20260901224003 14 0 0.0 0.0 0.00 0.03 0.00 89 1018.6
20260901223004 14 0 0.0 0.0 0.00 0.03 0.00 89 1018.6
20260901222003 14 296 1.6 1.6 0.00 0.03 0.00 89 1018.5
20260901221006 15 290 1.6 4.8 0.00 0.03 0.00 89 1018.5
20260901220008 15 302 0.0 3.2 0.00 0.03 0.00 89 1018.5
20260901215007 15 0 0.0 1.6 0.00 0.03 0.03 89 1018.5
20260901214006 15 0 0.0 3.2 0.00 0.03 0.03 89 1018.5
20260901213003 15 0 0.0 0.0 0.00 0.03 0.03 89 1018.4
20260901212006 15 0 0.0 3.2 0.00 0.03 0.03 88 1018.4
20260901211006 15 0 0.0 4.8 0.00 0.03 0.03 88 1018.4
20260901210003 15 355 1.6 1.6 0.00 0.03 0.03 88 1018.4
20260901205221 15 348 3.2 4.8 0.00 0.03 0.03 87 1018.4
20260901204217 16 318 1.6 4.8 0.00 0.03 0.03 87 1018.5
20260901203006 16 235 3.2 11.3 0.00 0.03 0.03 86 1018.5
20260901202003 16 232 3.2 4.8 0.03 0.03 0.03 85 1018.4
20260901201006 16 275 3.2 9.7 0.03 0.03 0.03 84 1018.2
20260901200217 16 290 4.8 12.9 0.03 0.03 0.03 83 1018.1
20260901195003 16 294 4.8 11.3 0.03 0.03 0.03 82 1018.0
20260901194006 16 299 3.2 14.5 0.03 0.03 0.03 80 1018.1
20260901193006 17 299 6.4 11.3 0.03 0.03 0.03 78 1017.9
20260901192006 17 302 6.4 16.1 0.00 0.03 0.00 75 1017.9
20260901191006 18 287 4.8 14.5 0.00 0.05 0.00 72 1017.8
20260901190006 18 316 6.4 14.5 0.00 0.18 0.00 70 1017.7
20260901185221 18 293 6.4 17.7 0.00 0.18 0.00 71 1017.6
20260901184006 18 228 6.4 9.7 0.00 0.18 0.00 70 1017.0
20260901183006 18 233 4.8 12.9 0.00 0.18 0.00 70 1016.9
20260901182006 19 235 4.8 9.7 0.00 0.18 0.00 69 1016.8
20260901181003 19 222 4.8 8.0 0.00 0.18 0.00 69 1016.6
20260901180006 20 209 3.2 9.7 0.00 0.18 0.00 69 1016.5
20260901175218 20 220 3.2 6.4 0.00 0.18 0.00 68 1016.6
20260901174008 20 237 3.2 6.4 0.00 0.18 0.00 66 1016.5
20260901173003 20 230 4.8 4.8 0.00 0.18 0.00 64 1016.4
20260901172003 21 228 3.2 11.3 0.00 0.18 0.00 63 1016.5
20260901171220 21 228 3.2 8.0 0.00 0.18 0.00 62 1016.5
20260901170009 21 240 4.8 11.3 0.00 0.18 0.00 60 1016.5
20260901165008 21 236 6.4 14.5 0.00 0.18 0.00 58 1016.4
20260901164006 22 219 6.4 16.1 0.00 0.18 0.00 56 1016.4
20260901163006 22 215 4.8 16.1 0.00 0.18 0.00 55 1016.4
20260901162003 22 218 4.8 16.1 0.00 0.18 0.00 55 1016.3
20260901161006 23 243 4.8 12.9 0.00 0.18 0.00 54 1016.4
20260901160004 23 248 4.8 14.5 0.00 0.18 0.00 53 1016.4
20260901155217 23 245 1.6 14.5 0.00 0.18 0.00 55 1016.4
20260901154006 22 240 6.4 11.3 0.00 0.18 0.00 55 1016.4
20260901153006 23 226 4.8 14.5 0.00 0.18 0.00 54 1016.4
20260901152003 23 286 3.2 12.9 0.00 0.18 0.00 56 1016.4
20260901151003 22 242 6.4 11.3 0.00 0.18 0.00 58 1016.5
20260901150006 22 271 6.4 17.7 0.00 0.18 0.00 55 1016.5
20260901145217 23 242 6.4 16.1 0.00 0.18 0.00 56 1016.5
20260901144006 22 230 4.8 16.1 0.00 0.18 0.00 57 1016.6
20260901143006 22 270 8.0 24.1 0.00 0.18 0.00 56 1016.7
20260901142006 23 283 3.2 14.5 0.00 0.18 0.00 55 1016.8
20260901141217 23 293 4.8 14.5 0.00 0.18 0.00 56 1016.8
20260901140003 23 296 4.8 14.5 0.00 0.18 0.00 54 1016.8
20260901135221 23 272 6.4 17.7 0.00 0.18 0.00 54 1016.9
20260901134006 23 308 6.4 20.9 0.00 0.18 0.00 56 1016.8
20260901133006 23 269 4.8 12.9 0.00 0.18 0.00 57 1016.8
20260901132006 23 301 4.8 17.7 0.00 0.18 0.00 56 1016.9
20260901131006 23 291 4.8 17.7 0.00 0.18 0.00 55 1016.9
20260901130006 23 324 6.4 16.1 0.00 0.18 0.00 57 1016.9
20260901125006 23 268 8.0 22.5 0.00 0.18 0.00 56 1017.0
20260901124007 23 237 8.0 17.7 0.00 0.18 0.00 56 1017.0
20260901123220 22 240 9.7 19.3 0.00 0.18 0.00 56 1017.1
20260901122003 22 271 9.7 19.3 0.00 0.18 0.00 57 1017.2
20260901121003 21 271 8.0 19.3 0.00 0.18 0.00 59 1017.1
20260901120220 22 302 6.4 20.9 0.00 0.18 0.00 57 1017.1
20260901115006 22 344 6.4 11.3 0.00 0.18 0.00 59 1017.2
20260901114003 22 315 3.2 14.5 0.00 0.18 0.00 61 1017.2
20260901113003 21 306 4.8 11.3 0.00 0.18 0.00 62 1017.3
20260901112007 21 249 6.4 12.9 0.00 0.18 0.00 60 1017.3
20260901111006 21 239 9.7 19.3 0.00 0.18 0.00 60 1017.4
20260901110220 22 250 8.0 19.3 0.00 0.18 0.00 58 1017.3
20260901105006 22 233 8.0 19.3 0.00 0.18 0.00 58 1017.3
20260901104003 22 286 6.4 24.1 0.00 0.18 0.00 62 1017.2
20260901103217 22 262 6.4 20.9 0.00 0.18 0.00 61 1017.3
20260901102007 21 249 8.0 19.3 0.00 0.18 0.00 65 1017.3